Location: Arcizac
(43.0933°N, 0.0112°E)
Time: 09:08:27
(UTC+00:00)

CZ-4 R/B - Pass Details

Date: 14 December 2019
Orbit: 532 x 598 km, 97.7° (Epoch: 19 January)

Event Time Altitude Azimuth Distance (km) Brightness Sun altitude
Rises 17:07:56 0° 122° (ESE) 2,693 4.5 -7.7°
Reaches altitude 10° 17:10:49 10° 98° (E) 1,798 3.4 -8.2°
Maximum altitude 17:12:59 15° 64° (ENE) 1,523 2.9 -8.5°
Drops below altitude 10° 17:15:08 10° 30° (NNE) 1,796 3.5 -8.9°
Sets 17:18:01 0° 7° (N) 2,689 4.5 -9.4°
